Location: Coll
(42.4728°N, 0.7714°E)
Time: 12:55:53
(UTC+00:00)

Cosmos 494 Rocket - Pass Details

Date: 23 October 2020
Orbit: 742 x 771 km, 74.1° (Epoch: 01 December)

Event Time Altitude Azimuth Distance (km) Brightness Sun altitude
Exits shadow 04:39:34 36° 252° (WSW) 1,211 4.5 -19.1°
Maximum altitude 04:41:06 45° 295° (WNW) 1,037 4.3 -18.8°
Drops below altitude 10° 04:46:09 10° 8° (N) 2,321 6.6 -17.9°
Sets 04:48:39 0° 15° (NNE) 3,253 7.5 -17.4°
